Cloud_Cover
0 0 0 0 0 0 0 0 0 20 44 48 44 48 56 48 44 36 32 24 32 48 68 64 68 76 88 92 80 76 68 56 80 88 92 92 76 76 88 92 92 92 92 92 92 92 92 92 92 92 92 92 92 92 92 92 92 92 92 92 88 80 80 76 76 76 80 88 92
0 0 0 0 0 0 0 0 32 44 48 48 44 44 44 44 44 44 48 36 44 48 64 76 68 68 68 76 64 48 48 64 88 92 88 76 64 76 92 88 92 92 92 92 92 92 92 92 92 92 92 92 92 92 92 92 100 92 92 92 92 92 88 88 80 88 92 92 92
0 0 0 12 20 12 0 0 36 48 48 48 56 64 56 44 36 32 32 36 48 56 64 80 80 68 56 48 56 56 64 68 76 80 88 76 88 92 88 68 88 92 92 92 92 92 92 92 92 88 88 92 92 92 100 100 92 92 92 92 92 88 88 80 88 92 92 92 92
0 0 0 20 8 8 8 0 32 44 48 44 48 56 56 36 32 36 44 44 48 64 80 80 80 76 76 80 56 48 64 68 88 92 92 92 92 92 92 80 92 92 92 92 92 92 92 92 92 92 92 92 92 92 92 92 92 92 92 92 92 92 92 92 92 92 92 92 92
0 0 8 36 24 24 20 32 48 48 48 48 36 44 44 32 24 24 24 48 64 68 76 80 80 80 80 76 56 48 64 68 68 80 92 76 92 92 92 92 92 92 92 92 92 92 92 92 92 88 80 80 92 92 92 92 92 92 92 92 92 92 92 92 92 92 92 92 92
0 0 8 24 36 44 48 56 36 36 48 48 64 56 44 48 24 20 24 48 56 56 56 64 68 68 68 76 68 56 48 68 76 88 92 92 92 92 92 92 92 92 92 92 92 92 92 92 92 92 88 88 92 92 92 92 92 92 92 92 92 92 92 92 92 92 92 92 92
0 0 12 56 48 64 64 48 32 44 56 36 48 56 48 20 32 36 48 56 64 64 64 56 68 68 64 68 68 56 44 44 80 92 92 92 92 92 92 92 92 92 92 92 92 92 88 92 76 68 68 76 92 92 92 92 92 92 92 92 92 92 92 92 92 92 92 92 92
0 0 8 32 44 56 64 56 64 64 56 56 56 64 64 48 48 56 68 76 64 64 64 64 68 68 68 68 76 56 36 44 80 88 88 92 92 92 92 92 92 92 92 92 92 92 92 92 92 92 92 88 92 92 92 92 92 92 92 92 92 92 92 92 92 92 92 92 92
0 0 0 8 24 56 76 80 80 64 44 48 44 36 32 24 48 68 76 80 80 88 88 68 56 64 64 64 48 48 44 20 56 80 92 92 92 92 92 92 92 92 92 92 92 92 92 92 92 92 88 64 80 92 92 92 92 92 92 88 92 92 92 92 92 92 92 92 92
0 0 8 24 24 48 76 64 64 48 44 44 48 48 48 48 76 80 80 76 88 88 92 92 48 36 44 56 44 44 32 8 68 80 80 88 92 92 92 92 92 92 92 92 92 92 92 92 92 92 92 92 76 80 88 88 92 92 92 92 92 92 92 92 92 92 92 92 92
0 0 12 44 32 48 68 44 44 64 68 36 76 88 92 80 88 88 80 80 76 76 76 68 32 20 24 32 32 36 36 20 32 32 36 44 68 80 92 92 92 92 92 92 92 92 92 92 92 92 92 92 92 92 92 88 92 92 92 92 92 92 92 92 92 92 92 92 92
0 0 0 12 32 48 48 44 64 64 68 88 92 92 92 92 92 88 80 80 80 80 76 76 32 12 8 12 12 24 32 12 20 20 20 20 32 44 64 88 92 92 92 92 92 92 92 92 92 92 92 92 92 92 92 92 92 92 92 92 92 92 92 92 92 92 92 92 92
0 0 12 36 56 56 64 88 76 76 88 88 92 92 92 92 92 88 76 76 80 88 88 76 48 24 8 12 8 24 44 44 20 12 12 12 12 20 32 76 92 92 92 92 92 92 92 92 92 92 92 92 92 92 92 88 88 92 92 92 92 92 92 92 92 92 92 92 92
0 8 24 56 68 76 76 80 80 88 92 92 92 92 92 92 92 88 76 68 80 80 80 68 64 32 8 8 8 24 56 92 64 44 24 12 12 12 32 68 88 92 92 92 92 92 92 92 92 92 92 92 92 92 92 80 80 88 92 88 92 92 92 92 92 92 92 92 92
0 20 44 64 76 80 80 76 92 92 92 92 92 92 92 92 92 92 88 88 88 80 68 56 64 36 8 0 8 20 48 92 92 80 56 36 24 24 32 20 76 92 88 92 92 92 92 92 88 88 92 92 92 92 92 92 92 92 92 92 92 92 92 92 92 92 92 92 92
0 36 64 56 68 76 80 76 92 92 92 88 88 92 92 92 92 92 92 92 92 76 56 36 44 24 8 8 12 24 44 76 88 88 76 48 36 36 36 24 76 92 92 92 92 92 92 92 88 80 80 88 92 92 92 92 92 92 92 92 92 92 92 92 92 92 100 100 100
20 44 68 76 76 80 80 80 92 92 88 88 88 88 92 88 92 92 88 92 88 68 44 36 36 32 20 12 32 32 32 36 56 68 68 44 48 48 44 24 56 64 76 92 92 92 92 92 92 88 76 80 88 92 92 92 92 92 92 92 92 92 92 92 92 92 92 92 92
36 32 36 76 88 88 80 80 88 80 80 88 88 80 80 88 88 88 80 80 76 56 44 44 36 36 36 24 56 56 44 24 24 32 36 32 44 36 24 12 24 36 56 92 92 92 92 92 92 92 92 80 92 92 92 92 92 92 92 92 92 92 92 92 92 92 92 92 92
44 24 20 44 80 80 68 76 88 88 80 92 88 80 80 88 80 80 76 64 48 48 48 32 32 24 24 24 56 56 36 24 20 20 20 24 32 32 32 24 32 36 56 92 92 92 92 92 92 92 92 88 92 92 92 92 92 92 92 92 92 92 92 92 92 92 92 92 92
36 24 20 48 80 76 64 80 92 88 88 88 92 92 92 88 80 68 56 44 36 44 36 24 20 12 12 32 32 32 24 20 24 24 20 20 24 32 36 48 48 56 76 92 92 92 92 92 92 92 92 92 92 92 92 92 92 92 92 92 92 92 92 92 92 92 92 92 92
36 32 24 44 80 76 68 88 88 88 80 80 92 92 92 88 68 64 44 20 24 24 20 20 8 8 24 76 32 20 20 24 24 24 24 20 20 24 44 56 48 64 80 92 92 92 92 88 80 88 92 92 92 92 92 92 92 92 92 92 92 92 92 100 92 92 92 92 92
24 32 44 64 76 68 64 76 76 76 80 80 92 92 92 80 56 56 56 24 44 32 12 8 8 24 48 80 36 20 20 24 24 24 20 12 32 44 48 56 64 76 88 88 80 80 80 88 80 88 92 92 92 92 92 92 92 92 92 92 92 92 100 100 100 92 92 92 92
36 64 80 88 76 64 56 48 68 80 80 92 92 92 88 76 48 56 68 64 36 32 32 8 32 48 64 76 36 24 24 48 36 36 36 44 56 56 64 68 80 88 88 80 76 76 76 80 92 92 92 92 92 92 92 92 92 92 92 92 92 92 92 92 92 92 92 92 92
56 76 92 92 64 48 44 44 68 76 80 92 92 92 88 76 44 48 64 64 48 36 24 8 48 64 64 76 44 32 24 32 20 36 56 56 68 68 76 88 92 92 92 88 80 76 80 92 92 92 92 92 92 92 92 92 92 92 92 92 92 92 92 92 92 92 92 92 92
88 80 76 88 64 44 36 56 80 80 88 92 88 80 76 48 48 64 76 56 68 80 80 68 76 76 68 36 24 24 32 44 36 56 80 68 80 88 88 88 92 92 92 92 92 80 80 88 92 92 88 92 92 92 92 92 92 92 92 92 92 92 92 92 92 92 92 92 92
88 76 68 68 48 44 48 80 76 88 92 92 88 76 68 56 56 76 88 80 80 80 80 68 76 64 36 32 56 64 56 48 56 64 76 92 92 92 92 92 92 92 92 92 92 88 80 68 80 88 88 92 92 92 92 92 92 92 92 92 92 92 92 92 92 92 92 92 92
76 68 64 44 36 44 64 88 88 88 88 88 76 64 56 68 88 68 48 44 48 56 56 56 48 44 36 56 80 88 80 68 76 76 76 88 88 92 92 92 80 88 92 88 80 88 88 80 88 88 88 100 92 92 92 92 92 92 92 92 92 92 92 92 92 92 92 92 92
80 80 56 44 36 56 76 88 92 88 80 76 64 64 56 64 48 36 32 36 48 64 76 80 56 48 56 68 88 80 68 56 68 80 80 76 68 68 68 68 48 44 56 88 80 88 92 92 92 92 92 92 92 92 92 92 92 100 92 92 92 92 92 92 92 92 92 92 92
76 68 64 56 48 64 76 92 92 88 76 56 48 48 56 88 80 68 48 36 76 88 80 48 64 80 92 92 76 64 56 64 68 76 80 80 92 80 76 92 80 80 88 80 88 92 92 92 92 92 92 92 92 100 100 100 100 100 100 100 100 92 92 92 92 92 92 92 92
92 92 88 76 64 76 88 88 76 76 76 68 56 48 56 68 56 44 24 8 68 56 24 36 76 88 92 92 80 64 56 56 76 76 80 92 92 92 88 80 88 80 80 88 92 92 92 92 92 92 92 92 92 92 92 92 92 92 92 92 92 92 92 92 92 92 92 92 92
92 92 92 76 68 76 80 80 76 76 76 76 48 36 36 48 20 20 36 64 44 44 48 76 88 92 92 92 88 76 68 68 76 80 88 92 92 92 92 92 92 92 92 92 92 92 92 92 92 92 92 92 92 92 92 92 92 92 92 92 92 92 92 92 92 92 92 92 92
92 92 92 88 88 80 76 76 56 48 48 36 44 36 24 24 36 68 92 92 92 92 92 92 92 92 92 76 76 68 68 68 68 80 92 92 92 92 92 88 92 92 92 92 88 92 92 92 92 92 92 92 92 92 92 92 92 92 92 92 92 92 92 92 92 92 92 92 92
92 92 92 92 88 80 76 76 44 36 48 76 48 36 32 24 80 92 92 92 92 92 92 92 92 92 92 92 76 76 80 76 88 92 92 92 92 92 80 44 64 80 92 88 92 92 92 92 92 92 92 92 92 92 92 92 92 92 92 92 92 92 92 92 92 92 92 92 92
92 92 92 92 88 80 88 92 68 56 56 44 36 32 32 68 88 92 92 92 92 92 92 92 92 92 92 92 92 92 92 92 92 92 92 92 76 80 88 76 88 92 92 92 92 92 92 92 92 92 92 92 92 92 92 92 92 92 92 92 92 92 92 92 92 92 100 100 100
92 92 92 76 80 88 92 92 64 44 32 32 32 24 44 92 92 92 92 92 92 92 92 92 92 92 92 92 92 92 92 88 92 92 92 92 76 80 88 92 92 92 92 92 92 92 92 92 92 92 92 92 92 92 92 92 92 92 92 92 92 92 92 92 92 92 92 92 92
92 92 92 92 76 80 80 64 48 32 24 24 48 68 88 92 92 92 92 92 92 92 92 92 92 92 92 92 92 92 80 76 88 92 92 92 88 80 88 92 92 92 92 92 92 92 92 92 92 92 92 92 92 92 92 92 92 92 92 92 92 92 92 92 92 92 92 92 92
92 92 88 80 68 64 56 24 20 24 48 68 56 76 92 92 92 92 92 92 92 92 92 92 92 92 92 92 92 92 92 92 92 92 92 92 92 88 88 92 92 92 92 92 92 92 92 92 92 92 92 92 92 92 92 92 92 92 92 92 92 92 92 92 92 92 92 92 92
88 80 76 76 68 64 48 32 44 64 80 88 92 92 92 92 92 92 92 92 92 92 92 92 92 92 92 92 92 92 92 92 92 92 92 92 92 92 92 92 92 92 92 92 92 92 92 92 92 92 92 92 92 92 92 92 92 92 92 92 92 92 92 92 92 92 92 92 92
68 64 68 76 76 68 64 68 88 92 92 92 92 92 92 92 92 92 92 92 92 92 92 92 92 92 92 88 80 88 92 92 92 92 92 92 92 92 92 92 92 92 92 92 92 92 92 92 92 92 92 92 92 92 92 92 92 92 92 92 92 92 92 92 92 92 92 92 92
56 64 80 76 76 68 76 92 92 92 92 92 92 92 92 92 92 92 92 92 92 92 92 92 92 92 92 80 76 80 92 92 92 92 92 92 92 92 92 92 92 92 92 92 92 92 92 92 92 92 92 92 92 92 92 92 92 92 92 92 92 92 92 92 92 92 92 92 92
76 80 88 80 80 80 88 92 92 92 92 92 92 92 92 92 92 92 92 92 92 92 92 92 92 92 92 92 92 92 92 92 92 92 92 92 92 92 92 92 92 92 92 92 92 92 92 92 92 92 92 92 92 92 92 92 92 92 92 92 92 92 92 92 92 92 92 92 92